owner,sensor,date,latitude,longitude,vertical_datum,wind_speed,wind_to_direction,wind_speed_of_gust,qcFlag 
TABS,ioos:station:wmo:42044:1,2017-11-01T00:00:00Z,26.1914,-97.0507,0.0,8.607955623,177.5366845,10.41,'11111222,11111222,11111222' 
TABS,ioos:station:wmo:42044:1,2017-11-01T00:30:00Z,26.1914,-97.0507,0.0,8.590488927,167.2905752,10.38,'11111222,11111222,11111222' 
TABS,ioos:station:wmo:42044:1,2017-11-01T01:00:00Z,26.1914,-97.0507,0.0,7.509600522,168.1665928,9.39,'11111222,11111222,11111222' 
TABS,ioos:station:wmo:42044:1,2017-11-01T01:30:00Z,26.1914,-97.0507,0.0,7.975988967,164.8837355,9.66,'11111222,11111222,11111222' 
TABS,ioos:station:wmo:42044:1,2017-11-01T02:00:00Z,26.1914,-97.0507,0.0,9.085620507,173.1098674,10.76,'11111222,11111222,11111222' 
TABS,ioos:station:wmo:42044:1,2017-11-01T02:30:00Z,26.1914,-97.0507,0.0,8.487284607,175.4047663,9.89,'11111222,11111222,11111222' 
TABS,ioos:station:wmo:42044:1,2017-11-01T03:00:00Z,26.1914,-97.0507,0.0,7.795639807,165.2866093,9.58,'11111222,11111222,11111222' 
TABS,ioos:station:wmo:42044:1,2017-11-01T03:30:00Z,26.1914,-97.0507,0.0,7.921237277,165.8236556,9.69,'11111222,11111222,11111222' 
TABS,ioos:station:wmo:42044:1,2017-11-01T04:00:00Z,26.1914,-97.0507,0.0,8.680812174,161.0435009,11.25,'11111222,11111222,11111222' 
TABS,ioos:station:wmo:42044:1,2017-11-01T04:30:00Z,26.1914,-97.0507,0.0,8.558703173,162.6661942,10.74,'11111222,11111222,11111222' 
TABS,ioos:station:wmo:42044:1,2017-11-01T05:00:00Z,26.1914,-97.0507,0.0,8.553689263,167.1662844,10.28,'11111222,11111222,11111222' 
TABS,ioos:station:wmo:42044:1,2017-11-01T05:30:00Z,26.1914,-97.0507,0.0,8.316273204,164.6605315,9.92,'11111222,11111222,11111222' 
TABS,ioos:station:wmo:42044:1,2017-11-01T06:00:00Z,26.1914,-97.0507,0.0,7.436181816,166.1508734,9.14,'11111222,11111222,11111222' 
TABS,ioos:station:wmo:42044:1,2017-11-01T06:30:00Z,26.1914,-97.0507,0.0,6.985878613,165.0688282,8.57,'11111222,11111222,11111222' 
TABS,ioos:station:wmo:42044:1,2017-11-01T07:00:00Z,26.1914,-97.0507,0.0,6.163002515,166.3924126,7.86,'11111222,11111222,11111222' 
TABS,ioos:station:wmo:42044:1,2017-11-01T07:30:00Z,26.1914,-97.0507,0.0,6.550854906,164.4152726,7.84,'11111222,11111222,11111222' 
TABS,ioos:station:wmo:42044:1,2017-11-01T08:00:00Z,26.1914,-97.0507,0.0,6.152235366,171.2115855,7.49,'11111222,11111222,11111222' 
TABS,ioos:station:wmo:42044:1,2017-11-01T08:30:00Z,26.1914,-97.0507,0.0,6.72910841,177.0187562,8.39,'11111222,11111222,11111222' 
TABS,ioos:station:wmo:42044:1,2017-11-01T09:00:00Z,26.1914,-97.0507,0.0,5.799974138,176.6395586,7.34,'11111222,11111222,11111222' 
TABS,ioos:station:wmo:42044:1,2017-11-01T09:30:00Z,26.1914,-97.0507,0.0,4.580010917,179.875111,5.53,'11111222,11111222,11111222' 
TABS,ioos:station:wmo:42044:1,2017-11-01T10:00:00Z,26.1914,-97.0507,0.0,4.959939516,189.6334284,6.12,'11111222,11111222,11111222' 
TABS,ioos:station:wmo:42044:1,2017-11-01T10:30:00Z,26.1914,-97.0507,0.0,4.563299245,197.9983595,5.4,'11111222,11111222,11111222' 
TABS,ioos:station:wmo:42044:1,2017-11-01T11:00:00Z,26.1914,-97.0507,0.0,4.049222148,189.8114444,4.79,'11111222,11111222,11111222' 
TABS,ioos:station:wmo:42044:1,2017-11-01T11:30:00Z,26.1914,-97.0507,0.0,6.716085169,193.5191397,7.89,'11111222,11111222,11111222' 
TABS,ioos:station:wmo:42044:1,2017-11-01T12:00:00Z,26.1914,-97.0507,0.0,5.711812322,192.3331443,6.78,'11111222,11111222,11111222' 
TABS,ioos:station:wmo:42044:1,2017-11-01T12:30:00Z,26.1914,-97.0507,0.0,6.771949498,195.6782688,8.53,'11111222,11111222,11111222' 
TABS,ioos:station:wmo:42044:1,2017-11-01T13:00:00Z,26.1914,-97.0507,0.0,7.415935544,192.143504,8.65,'11111222,11111222,11111222' 
TABS,ioos:station:wmo:42044:1,2017-11-01T13:30:00Z,26.1914,-97.0507,0.0,6.824851647,191.408902,7.95,'11111222,11111222,11111222' 
TABS,ioos:station:wmo:42044:1,2017-11-01T14:00:00Z,26.1914,-97.0507,0.0,6.823672032,192.1829059,8.34,'11111222,11111222,11111222' 
TABS,ioos:station:wmo:42044:1,2017-11-01T14:30:00Z,26.1914,-97.0507,0.0,5.457700981,200.2613152,6.76,'11111222,11111222,11111222' 
TABS,ioos:station:wmo:42044:1,2017-11-01T15:00:00Z,26.1914,-97.0507,0.0,3.973159951,218.2545414,4.75,'11111222,11111222,11111222' 
TABS,ioos:station:wmo:42044:1,2017-11-01T15:30:00Z,26.1914,-97.0507,0.0,3.246444209,221.0034111,3.87,'11111222,11111222,11111222' 
TABS,ioos:station:wmo:42044:1,2017-11-01T16:00:00Z,26.1914,-97.0507,0.0,1.598311609,226.0140816,2.29,'11111222,11111222,11111222' 
TABS,ioos:station:wmo:42044:1,2017-11-01T16:30:00Z,26.1914,-97.0507,0.0,1.020049018,180.5619145,1.64,'11111222,11111222,11111222' 
TABS,ioos:station:wmo:42044:1,2017-11-01T17:00:00Z,26.1914,-97.0507,0.0,3.154298654,174.5426697,5.94,'11111222,11111222,11111222' 
TABS,ioos:station:wmo:42044:1,2017-11-01T17:30:00Z,26.1914,-97.0507,0.0,5.600321419,180.6140689,6.84,'11111222,11111222,11111222' 
TABS,ioos:station:wmo:42044:1,2017-11-01T18:00:00Z,26.1914,-97.0507,0.0,6.650187967,179.5694242,8.12,'11111222,11111222,11111222' 
TABS,ioos:station:wmo:42044:1,2017-11-01T18:30:00Z,26.1914,-97.0507,0.0,6.59831039,173.82305,7.92,'11111222,11111222,11111222' 
TABS,ioos:station:wmo:42044:1,2017-11-01T19:00:00Z,26.1914,-97.0507,0.0,6.991401862,178.8528116,8.14,'11111222,11111222,11111222' 
TABS,ioos:station:wmo:42044:1,2017-11-01T19:30:00Z,26.1914,-97.0507,0.0,7.000257138,180.491304,8.63,'11111222,11111222,11111222' 
TABS,ioos:station:wmo:42044:1,2017-11-01T20:00:00Z,26.1914,-97.0507,0.0,6.671079373,181.0309055,7.96,'11111222,11111222,11111222' 
TABS,ioos:station:wmo:42044:1,2017-11-01T20:30:00Z,26.1914,-97.0507,0.0,6.620188819,179.5674721,7.93,'11111222,11111222,11111222' 
TABS,ioos:station:wmo:42044:1,2017-11-01T21:00:00Z,26.1914,-97.0507,0.0,6.450193796,180.4443539,7.7,'11111222,11111222,11111222' 
TABS,ioos:station:wmo:42044:1,2017-11-01T21:30:00Z,26.1914,-97.0507,0.0,6.094727229,177.7434218,7.14,'11111222,11111222,11111222' 
TABS,ioos:station:wmo:42044:1,2017-11-01T22:00:00Z,26.1914,-97.0507,0.0,6.672997827,178.2827147,7.96,'11111222,11111222,11111222' 
TABS,ioos:station:wmo:42044:1,2017-11-01T22:30:00Z,26.1914,-97.0507,0.0,6.217298449,173.7210946,7.19,'11111222,11111222,11111222' 
TABS,ioos:station:wmo:42044:1,2017-11-01T23:00:00Z,26.1914,-97.0507,0.0,6.139128603,172.04171,7.23,'11111222,11111222,11111222' 
TABS,ioos:station:wmo:42044:1,2017-11-01T23:30:00Z,26.1914,-97.0507,0.0,6.77366223,167.3796857,7.77,'11111222,11111222,11111222' 
TABS,ioos:station:wmo:42044:1,2017-11-02T00:00:00Z,26.1914,-97.0507,0.0,7.074517651,163.4096078,8.36,'11111222,11111222,11111222' 
TABS,ioos:station:wmo:42044:1,2017-11-02T00:30:00Z,26.1914,-97.0507,0.0,7.236159202,164.1201088,8.66,'11111222,11111222,11111222' 
TABS,ioos:station:wmo:42044:1,2017-11-02T01:00:00Z,26.1914,-97.0507,0.0,7.11366291,166.2570197,8.23,'11111222,11111222,11111222' 
TABS,ioos:station:wmo:42044:1,2017-11-02T01:30:00Z,26.1914,-97.0507,0.0,6.706959072,165.0523197,7.98,'11111222,11111222,11111222' 
TABS,ioos:station:wmo:42044:1,2017-11-02T02:00:00Z,26.1914,-97.0507,0.0,6.575606436,163.6598808,7.57,'11111222,11111222,11111222' 
TABS,ioos:station:wmo:42044:1,2017-11-02T02:30:00Z,26.1914,-97.0507,0.0,6.998521272,164.0773428,8.45,'11111222,11111222,11111222' 
TABS,ioos:station:wmo:42044:1,2017-11-02T03:00:00Z,26.1914,-97.0507,0.0,6.874656355,167.8239884,8.26,'11111222,11111222,11111222' 
TABS,ioos:station:wmo:42044:1,2017-11-02T03:30:00Z,26.1914,-97.0507,0.0,6.805776958,169.4167809,8.3,'11111222,11111222,11111222' 
TABS,ioos:station:wmo:42044:1,2017-11-02T04:00:00Z,26.1914,-97.0507,0.0,7.291261894,170.9254737,9.02,'11111222,11111222,11111222' 
TABS,ioos:station:wmo:42044:1,2017-11-02T04:30:00Z,26.1914,-97.0507,0.0,7.354352453,174.460176,8.97,'11111222,11111222,11111222' 
TABS,ioos:station:wmo:42044:1,2017-11-02T05:00:00Z,26.1914,-97.0507,0.0,7.071810235,178.7037835,8.47,'11111222,11111222,11111222' 
TABS,ioos:station:wmo:42044:1,2017-11-02T05:30:00Z,26.1914,-97.0507,0.0,7.070176801,180.4054063,9.1,'11111222,11111222,11111222' 
TABS,ioos:station:wmo:42044:1,2017-11-02T06:00:00Z,26.1914,-97.0507,0.0,7.112278116,178.5499976,8.7,'11111222,11111222,11111222' 
TABS,ioos:station:wmo:42044:1,2017-11-02T06:30:00Z,26.1914,-97.0507,0.0,7.036831673,177.4752957,8.07,'11111222,11111222,11111222' 
TABS,ioos:station:wmo:42044:1,2017-11-02T07:00:00Z,26.1914,-97.0507,0.0,6.984511436,176.3061924,8.16,'11111222,11111222,11111222' 
TABS,ioos:station:wmo:42044:1,2017-11-02T07:30:00Z,26.1914,-97.0507,0.0,6.393809506,176.2338313,7.8,'11111222,11111222,11111222' 
TABS,ioos:station:wmo:42044:1,2017-11-02T08:00:00Z,26.1914,-97.0507,0.0,6.494251304,176.2037505,7.78,'11111222,11111222,11111222' 
TABS,ioos:station:wmo:42044:1,2017-11-02T08:30:00Z,26.1914,-97.0507,0.0,6.053998679,177.91765,6.95,'11111222,11111222,11111222' 
TABS,ioos:station:wmo:42044:1,2017-11-02T09:00:00Z,26.1914,-97.0507,0.0,6.674683513,177.8537023,7.8,'11111222,11111222,11111222' 
TABS,ioos:station:wmo:42044:1,2017-11-02T09:30:00Z,26.1914,-97.0507,0.0,6.670299843,175.5290477,8.27,'11111222,11111222,11111222' 
TABS,ioos:station:wmo:42044:1,2017-11-02T10:00:00Z,26.1914,-97.0507,0.0,6.711929678,176.5836303,8.07,'11111222,11111222,11111222' 
TABS,ioos:station:wmo:42044:1,2017-11-02T10:30:00Z,26.1914,-97.0507,0.0,6.094760044,173.8780445,7.26,'11111222,11111222,11111222' 
TABS,ioos:station:wmo:42044:1,2017-11-02T11:00:00Z,26.1914,-97.0507,0.0,6.086657539,175.7603487,7.0,'11111222,11111222,11111222' 
TABS,ioos:station:wmo:42044:1,2017-11-02T11:30:00Z,26.1914,-97.0507,0.0,6.111211009,176.5291535,7.66,'11111222,11111222,11111222' 
TABS,ioos:station:wmo:42044:1,2017-11-02T12:00:00Z,26.1914,-97.0507,0.0,6.733929017,178.0428744,7.96,'11111222,11111222,11111222' 
TABS,ioos:station:wmo:42044:1,2017-11-02T12:30:00Z,26.1914,-97.0507,0.0,7.580323212,179.47111,9.15,'11111222,11111222,11111222' 
TABS,ioos:station:wmo:42044:1,2017-11-02T13:00:00Z,26.1914,-97.0507,0.0,7.544481427,178.0252811,8.75,'11111222,11111222,11111222' 
TABS,ioos:station:wmo:42044:1,2017-11-02T13:30:00Z,26.1914,-97.0507,0.0,7.790231062,180.4415032,9.49,'11111222,11111222,11111222' 
TABS,ioos:station:wmo:42044:1,2017-11-02T14:00:00Z,26.1914,-97.0507,0.0,7.620104986,179.6994487,8.88,'11111222,11111222,11111222' 
TABS,ioos:station:wmo:42044:1,2017-11-02T14:30:00Z,26.1914,-97.0507,0.0,8.100098765,179.7172713,9.72,'11111222,11111222,11111222' 
TABS,ioos:station:wmo:42044:1,2017-11-02T15:00:00Z,26.1914,-97.0507,0.0,7.891425727,181.0893501,9.48,'11111222,11111222,11111222' 
TABS,ioos:station:wmo:42044:1,2017-11-02T15:30:00Z,26.1914,-97.0507,0.0,7.300006849,179.9217233,8.87,'11111222,11111222,11111222' 
TABS,ioos:station:wmo:42044:1,2017-11-02T16:00:00Z,26.1914,-97.0507,0.0,7.43688779,177.5340889,9.36,'11111222,11111222,11111222' 
TABS,ioos:station:wmo:42044:1,2017-11-02T16:30:00Z,26.1914,-97.0507,0.0,7.198513735,177.2133316,8.89,'11111222,11111222,11111222' 
TABS,ioos:station:wmo:42044:1,2017-11-02T17:00:00Z,26.1914,-97.0507,0.0,7.044089721,178.047706,8.11,'11111222,11111222,11111222' 
TABS,ioos:station:wmo:42044:1,2017-11-02T17:30:00Z,26.1914,-97.0507,0.0,6.964854629,177.8608507,8.44,'11111222,11111222,11111222' 
TABS,ioos:station:wmo:42044:1,2017-11-02T18:00:00Z,26.1914,-97.0507,0.0,5.893063719,181.8478164,6.97,'11111222,11111222,11111222' 
TABS,ioos:station:wmo:42044:1,2017-11-02T18:30:00Z,26.1914,-97.0507,0.0,5.880306114,180.5848396,6.79,'11111222,11111222,11111222' 
TABS,ioos:station:wmo:42044:1,2017-11-02T19:00:00Z,26.1914,-97.0507,0.0,5.450229353,180.5258438,6.79,'11111222,11111222,11111222' 
TABS,ioos:station:wmo:42044:1,2017-11-02T19:30:00Z,26.1914,-97.0507,0.0,4.963073644,175.8405779,6.01,'11111222,11111222,11111222' 
TABS,ioos:station:wmo:42044:1,2017-11-02T20:00:00Z,26.1914,-97.0507,0.0,4.60613721,173.8935556,5.33,'11111222,11111222,11111222' 
TABS,ioos:station:wmo:42044:1,2017-11-02T20:30:00Z,26.1914,-97.0507,0.0,3.66,169.6113769,4.42,'11111222,11111222,11111222' 
TABS,ioos:station:wmo:42044:1,2017-11-02T21:00:00Z,26.1914,-97.0507,0.0,3.921887301,158.1445947,5.01,'11111222,11111222,11111222' 
TABS,ioos:station:wmo:42044:1,2017-11-02T21:30:00Z,26.1914,-97.0507,0.0,4.385544436,159.5818327,5.26,'11111222,11111222,11111222' 
TABS,ioos:station:wmo:42044:1,2017-11-02T22:00:00Z,26.1914,-97.0507,0.0,4.915221256,160.3856384,5.76,'11111222,11111222,11111222' 
TABS,ioos:station:wmo:42044:1,2017-11-02T22:30:00Z,26.1914,-97.0507,0.0,4.712218161,162.3343276,5.54,'11111222,11111222,11111222' 
TABS,ioos:station:wmo:42044:1,2017-11-02T23:00:00Z,26.1914,-97.0507,0.0,4.942762386,161.9685304,5.88,'11111222,11111222,11111222' 
TABS,ioos:station:wmo:42044:1,2017-11-02T23:30:00Z,26.1914,-97.0507,0.0,4.806880485,159.4163119,5.58,'11111222,11111222,11111222' 
TABS,ioos:station:wmo:42044:1,2017-11-03T00:00:00Z,26.1914,-97.0507,0.0,4.436766841,161.1977682,5.32,'11111222,11111222,11111222' 
TABS,ioos:station:wmo:42044:1,2017-11-03T00:30:00Z,26.1914,-97.0507,0.0,4.998569795,164.2123003,6.31,'11111222,11111222,11111222' 
TABS,ioos:station:wmo:42044:1,2017-11-03T01:00:00Z,26.1914,-97.0507,0.0,4.779340959,160.3141758,5.72,'11111222,11111222,11111222' 
TABS,ioos:station:wmo:42044:1,2017-11-03T01:30:00Z,26.1914,-97.0507,0.0,5.373360215,159.4067733,6.38,'11111222,11111222,11111222' 
TABS,ioos:station:wmo:42044:1,2017-11-03T02:00:00Z,26.1914,-97.0507,0.0,5.83270949,158.0529226,6.9,'11111222,11111222,11111222' 
TABS,ioos:station:wmo:42044:1,2017-11-03T02:30:00Z,26.1914,-97.0507,0.0,6.434671709,157.6201277,8.52,'11111222,11111222,11111222' 
TABS,ioos:station:wmo:42044:1,2017-11-03T03:00:00Z,26.1914,-97.0507,0.0,5.43530128,166.2708009,6.7,'11111222,11111222,11111222' 
TABS,ioos:station:wmo:42044:1,2017-11-03T03:30:00Z,26.1914,-97.0507,0.0,5.070009862,163.8530528,5.99,'11111222,11111222,11111222' 
TABS,ioos:station:wmo:42044:1,2017-11-03T04:00:00Z,26.1914,-97.0507,0.0,5.590921212,161.4356768,6.63,'11111222,11111222,11111222' 
TABS,ioos:station:wmo:42044:1,2017-11-03T04:30:00Z,26.1914,-97.0507,0.0,5.303150007,159.5833108,6.49,'11111222,11111222,11111222' 
TABS,ioos:station:wmo:42044:1,2017-11-03T05:00:00Z,26.1914,-97.0507,0.0,5.627823736,156.9888268,6.59,'11111222,11111222,11111222' 
TABS,ioos:station:wmo:42044:1,2017-11-03T05:30:00Z,26.1914,-97.0507,0.0,7.124921052,162.0993366,8.32,'11111222,11111222,11111222' 
TABS,ioos:station:wmo:42044:1,2017-11-03T06:00:00Z,26.1914,-97.0507,0.0,6.647119677,161.6743353,8.05,'11111222,11111222,11111222' 
TABS,ioos:station:wmo:42044:1,2017-11-03T06:30:00Z,26.1914,-97.0507,0.0,5.651831562,165.0296472,7.07,'11111222,11111222,11111222' 
TABS,ioos:station:wmo:42044:1,2017-11-03T07:00:00Z,26.1914,-97.0507,0.0,4.95625867,164.6741543,6.12,'11111222,11111222,11111222' 
TABS,ioos:station:wmo:42044:1,2017-11-03T07:30:00Z,26.1914,-97.0507,0.0,4.869209381,158.8106815,5.92,'11111222,11111222,11111222' 
TABS,ioos:station:wmo:42044:1,2017-11-03T08:00:00Z,26.1914,-97.0507,0.0,5.210076775,166.6841585,7.5,'11111222,11111222,11111222' 
TABS,ioos:station:wmo:42044:1,2017-11-03T08:30:00Z,26.1914,-97.0507,0.0,5.874214841,166.0113125,7.08,'11111222,11111222,11111222' 
TABS,ioos:station:wmo:42044:1,2017-11-03T09:00:00Z,26.1914,-97.0507,0.0,6.570190256,168.1430194,8.72,'11111222,11111222,11111222' 
TABS,ioos:station:wmo:42044:1,2017-11-03T09:30:00Z,26.1914,-97.0507,0.0,5.790354048,164.8839836,7.38,'11111222,11111222,11111222' 
TABS,ioos:station:wmo:42044:1,2017-11-03T10:00:00Z,26.1914,-97.0507,0.0,6.167698112,157.3017938,7.72,'11111222,11111222,11111222' 
TABS,ioos:station:wmo:42044:1,2017-11-03T10:30:00Z,26.1914,-97.0507,0.0,5.759513868,167.3635308,6.96,'11111222,11111222,11111222' 
TABS,ioos:station:wmo:42044:1,2017-11-03T11:00:00Z,26.1914,-97.0507,0.0,6.315164289,161.2497085,7.54,'11111222,11111222,11111222' 
TABS,ioos:station:wmo:42044:1,2017-11-03T11:30:00Z,26.1914,-97.0507,0.0,7.218226929,166.5415573,8.62,'11111222,11111222,11111222' 
TABS,ioos:station:wmo:42044:1,2017-11-03T12:00:00Z,26.1914,-97.0507,0.0,6.234260181,170.0241974,7.5,'11111222,11111222,11111222' 
TABS,ioos:station:wmo:42044:1,2017-11-03T12:30:00Z,26.1914,-97.0507,0.0,6.189030619,167.401143,7.46,'11111222,11111222,11111222' 
TABS,ioos:station:wmo:42044:1,2017-11-03T13:00:00Z,26.1914,-97.0507,0.0,5.592798941,163.0556923,6.58,'11111222,11111222,11111222' 
TABS,ioos:station:wmo:42044:1,2017-11-03T13:30:00Z,26.1914,-97.0507,0.0,4.982619793,159.9287315,6.3,'11111222,11111222,11111222' 
TABS,ioos:station:wmo:42044:1,2017-11-03T14:00:00Z,26.1914,-97.0507,0.0,4.993846213,157.389224,6.22,'11111222,11111222,11111222' 
TABS,ioos:station:wmo:42044:1,2017-11-03T14:30:00Z,26.1914,-97.0507,0.0,5.091807145,157.9690019,6.36,'11111222,11111222,11111222' 
TABS,ioos:station:wmo:42044:1,2017-11-03T15:00:00Z,26.1914,-97.0507,0.0,5.056649088,162.0311127,6.09,'11111222,11111222,11111222' 
TABS,ioos:station:wmo:42044:1,2017-11-03T15:30:00Z,26.1914,-97.0507,0.0,5.118329806,159.0511554,6.01,'11111222,11111222,11111222' 
TABS,ioos:station:wmo:42044:1,2017-11-03T16:00:00Z,26.1914,-97.0507,0.0,5.383846209,157.3885847,6.47,'11111222,11111222,11111222' 
TABS,ioos:station:wmo:42044:1,2017-11-03T16:30:00Z,26.1914,-97.0507,0.0,5.062054919,158.198852,6.2,'11111222,11111222,11111222' 
TABS,ioos:station:wmo:42044:1,2017-11-03T17:00:00Z,26.1914,-97.0507,0.0,4.861285838,150.957122,5.92,'11111222,11111222,11111222' 
TABS,ioos:station:wmo:42044:1,2017-11-03T17:30:00Z,26.1914,-97.0507,0.0,5.242442179,152.2620957,6.24,'11111222,11111222,11111222' 
TABS,ioos:station:wmo:42044:1,2017-11-03T18:00:00Z,26.1914,-97.0507,0.0,4.75584903,149.5530616,5.7,'11111222,11111222,11111222' 
TABS,ioos:station:wmo:42044:1,2017-11-03T18:30:00Z,26.1914,-97.0507,0.0,4.026834985,144.2972131,5.02,'11111222,11111222,11111222' 
TABS,ioos:station:wmo:42044:1,2017-11-03T19:00:00Z,26.1914,-97.0507,0.0,4.176984558,145.9297781,5.05,'11111222,11111222,11111222' 
TABS,ioos:station:wmo:42044:1,2017-11-03T19:30:00Z,26.1914,-97.0507,0.0,4.781631521,145.9114186,6.15,'11111222,11111222,11111222' 
TABS,ioos:station:wmo:42044:1,2017-11-03T20:00:00Z,26.1914,-97.0507,0.0,5.742273069,147.4449146,6.89,'11111222,11111222,11111222' 
TABS,ioos:station:wmo:42044:1,2017-11-03T20:30:00Z,26.1914,-97.0507,0.0,5.831294882,145.0565685,7.14,'11111222,11111222,11111222' 
TABS,ioos:station:wmo:42044:1,2017-11-03T21:00:00Z,26.1914,-97.0507,0.0,5.785715168,146.7771462,6.98,'11111222,11111222,11111222' 
TABS,ioos:station:wmo:42044:1,2017-11-03T21:30:00Z,26.1914,-97.0507,0.0,5.409417714,149.6904749,6.93,'11111222,11111222,11111222' 
TABS,ioos:station:wmo:42044:1,2017-11-03T22:00:00Z,26.1914,-97.0507,0.0,5.879812922,148.0672059,7.18,'11111222,11111222,11111222' 
TABS,ioos:station:wmo:42044:1,2017-11-03T22:30:00Z,26.1914,-97.0507,0.0,5.094948479,146.1230836,6.29,'11111222,11111222,11111222' 
TABS,ioos:station:wmo:42044:1,2017-11-03T23:00:00Z,26.1914,-97.0507,0.0,4.465165171,141.8214521,5.52,'11111222,11111222,11111222' 
TABS,ioos:station:wmo:42044:1,2017-11-03T23:30:00Z,26.1914,-97.0507,0.0,4.924895938,137.1396755,5.91,'11111222,11111222,11111222' 
TABS,ioos:station:wmo:42044:1,2017-11-04T00:00:00Z,26.1914,-97.0507,0.0,6.106562044,140.9155455,7.44,'11111222,11111222,11111222' 
TABS,ioos:station:wmo:42044:1,2017-11-04T00:30:00Z,26.1914,-97.0507,0.0,6.10724979,146.2842019,7.74,'11111222,11111222,11111222' 
TABS,ioos:station:wmo:42044:1,2017-11-04T01:00:00Z,26.1914,-97.0507,0.0,5.68795218,147.9308369,6.89,'11111222,11111222,11111222' 
TABS,ioos:station:wmo:42044:1,2017-11-04T01:30:00Z,26.1914,-97.0507,0.0,5.650999912,147.5757518,7.03,'11111222,11111222,11111222' 
TABS,ioos:station:wmo:42044:1,2017-11-04T02:00:00Z,26.1914,-97.0507,0.0,5.882941441,146.931508,7.6,'11111222,11111222,11111222' 
TABS,ioos:station:wmo:42044:1,2017-11-04T02:30:00Z,26.1914,-97.0507,0.0,5.869258897,148.2328996,7.24,'11111222,11111222,11111222' 
TABS,ioos:station:wmo:42044:1,2017-11-04T03:00:00Z,26.1914,-97.0507,0.0,5.793530875,154.9833755,7.09,'11111222,11111222,11111222' 
TABS,ioos:station:wmo:42044:1,2017-11-04T03:30:00Z,26.1914,-97.0507,0.0,6.303411775,154.9394455,7.73,'11111222,11111222,11111222' 
TABS,ioos:station:wmo:42044:1,2017-11-04T04:00:00Z,26.1914,-97.0507,0.0,6.312020279,161.9097634,7.84,'11111222,11111222,11111222' 
TABS,ioos:station:wmo:42044:1,2017-11-04T04:30:00Z,26.1914,-97.0507,0.0,6.883080706,162.9342416,8.18,'11111222,11111222,11111222' 
TABS,ioos:station:wmo:42044:1,2017-11-04T05:00:00Z,26.1914,-97.0507,0.0,7.07087689,170.8043379,8.3,'11111222,11111222,11111222' 
TABS,ioos:station:wmo:42044:1,2017-11-04T05:30:00Z,26.1914,-97.0507,0.0,6.994755178,173.5153022,8.24,'11111222,11111222,11111222' 
TABS,ioos:station:wmo:42044:1,2017-11-04T06:00:00Z,26.1914,-97.0507,0.0,6.641927431,178.6198596,8.12,'11111222,11111222,11111222' 
TABS,ioos:station:wmo:42044:1,2017-11-04T06:30:00Z,26.1914,-97.0507,0.0,6.380783651,179.1022331,7.92,'11111222,11111222,11111222' 
TABS,ioos:station:wmo:42044:1,2017-11-04T07:00:00Z,26.1914,-97.0507,0.0,5.980409685,180.6708646,7.3,'11111222,11111222,11111222' 
TABS,ioos:station:wmo:42044:1,2017-11-04T07:30:00Z,26.1914,-97.0507,0.0,6.463095234,178.2269179,7.63,'11111222,11111222,11111222' 
TABS,ioos:station:wmo:42044:1,2017-11-04T08:00:00Z,26.1914,-97.0507,0.0,6.193585391,183.7958157,8.55,'11111222,11111222,11111222' 
TABS,ioos:station:wmo:42044:1,2017-11-04T08:30:00Z,26.1914,-97.0507,0.0,7.386271048,187.077103,8.53,'11111222,11111222,11111222' 
TABS,ioos:station:wmo:42044:1,2017-11-04T09:00:00Z,26.1914,-97.0507,0.0,6.985162847,185.7515991,8.08,'11111222,11111222,11111222' 
TABS,ioos:station:wmo:42044:1,2017-11-04T09:30:00Z,26.1914,-97.0507,0.0,6.719203822,187.6117408,8.1,'11111222,11111222,11111222' 
TABS,ioos:station:wmo:42044:1,2017-11-04T10:00:00Z,26.1914,-97.0507,0.0,6.309651337,187.192789,7.46,'11111222,11111222,11111222' 
TABS,ioos:station:wmo:42044:1,2017-11-04T10:30:00Z,26.1914,-97.0507,0.0,6.294704123,183.9172062,7.37,'11111222,11111222,11111222' 
TABS,ioos:station:wmo:42044:1,2017-11-04T11:00:00Z,26.1914,-97.0507,0.0,6.731255455,181.1068238,8.04,'11111222,11111222,11111222' 
TABS,ioos:station:wmo:42044:1,2017-11-04T11:30:00Z,26.1914,-97.0507,0.0,6.77366223,183.6398524,8.02,'11111222,11111222,11111222' 
TABS,ioos:station:wmo:42044:1,2017-11-04T12:00:00Z,26.1914,-97.0507,0.0,6.672967855,189.575436,8.42,'11111222,11111222,11111222' 
TABS,ioos:station:wmo:42044:1,2017-11-04T12:30:00Z,26.1914,-97.0507,0.0,6.671266746,181.1167758,8.37,'11111222,11111222,11111222' 
TABS,ioos:station:wmo:42044:1,2017-11-04T13:00:00Z,26.1914,-97.0507,0.0,6.591145576,185.5723952,7.93,'11111222,11111222,11111222' 
TABS,ioos:station:wmo:42044:1,2017-11-04T13:30:00Z,26.1914,-97.0507,0.0,6.656613253,184.0490229,7.9,'11111222,11111222,11111222' 
TABS,ioos:station:wmo:42044:1,2017-11-04T14:00:00Z,26.1914,-97.0507,0.0,6.569870623,176.859088,7.9,'11111222,11111222,11111222' 
TABS,ioos:station:wmo:42044:1,2017-11-04T14:30:00Z,26.1914,-97.0507,0.0,6.911671288,167.974959,8.1,'11111222,11111222,11111222' 
TABS,ioos:station:wmo:42044:1,2017-11-04T15:00:00Z,26.1914,-97.0507,0.0,6.469327631,171.0183963,7.82,'11111222,11111222,11111222' 
TABS,ioos:station:wmo:42044:1,2017-11-04T15:30:00Z,26.1914,-97.0507,0.0,6.247919654,174.581627,7.51,'11111222,11111222,11111222' 
TABS,ioos:station:wmo:42044:1,2017-11-04T16:00:00Z,26.1914,-97.0507,0.0,6.363222454,176.3059346,7.47,'11111222,11111222,11111222' 
TABS,ioos:station:wmo:42044:1,2017-11-04T16:30:00Z,26.1914,-97.0507,0.0,7.05413354,171.6863406,8.14,'11111222,11111222,11111222' 
TABS,ioos:station:wmo:42044:1,2017-11-04T17:00:00Z,26.1914,-97.0507,0.0,6.666588333,175.9574663,7.9,'11111222,11111222,11111222' 
TABS,ioos:station:wmo:42044:1,2017-11-04T17:30:00Z,26.1914,-97.0507,0.0,7.269862447,173.2857851,8.76,'11111222,11111222,11111222' 
TABS,ioos:station:wmo:42044:1,2017-11-04T18:00:00Z,26.1914,-97.0507,0.0,7.594537511,175.3932106,8.88,'11111222,11111222,11111222' 
TABS,ioos:station:wmo:42044:1,2017-11-04T18:30:00Z,26.1914,-97.0507,0.0,7.761700845,175.7147477,9.28,'11111222,11111222,11111222' 